[[{"header":{"parameterUnit":"m.s-1","parameterCategory":1,"la1":30.2991,"la2":30.254,"lo1":-89.0895,"lo2":-89.0444,"dy":0.0017,"dx":0.0017,"nx":28,"ny":28,"refTime":"2026-01-04T03:00:00:Z","depth":0,"parameterNumber":2,"parameterNumberName":"U-component_of_WINDS"},"data":[0,0,0,0,0,0,0,0,0,0,0,0,0,0,0,0,0,0,0,0,0,0,0,0,0,0,0,0,0,0,0,0,0,0,0,0,0,0,0,0,0,0,0,0,0,0,0,0,0,0,0,0,0,0,0,0,0,0,-0.6421,-0.6421,0,-0.6441,-0.6441,-0.6442,-0.6422,-0.6421,-0.642,-0.6419,-0.6443,-0.6445,-0.6446,0,0,0,0,0,0,0,0,0,0,0,0,0,-0.6367,-0.6368,-0.6421,-0.6421,-0.6421,-0.6441,-0.6441,-0.6442,-0.6422,-0.6421,-0.642,-0.6419,-0.6443,-0.6444,-0.6446,0,0,0,0,0,0,0,0,0,0,0,0,0,-0.639,-0.6369,-0.6421,-0.6414,-0.6413,-0.6441,-0.6441,-0.6442,-0.6422,-0.6421,-0.642,-0.6418,-0.6442,-0.6444,-0.6446,-0.6483,0,0,-0.6453,-0.6453,0,0,0,0,0,0,0,0,-0.6388,-0.6392,-0.6415,-0.6414,-0.6414,-0.6428,-0.6431,-0.6456,-0.6422,-0.6419,-0.6419,-0.6418,-0.6439,-0.6441,-0.6448,-0.6484,-0.6485,-0.6453,-0.6454,-0.6455,-0.6455,0,0,0,0,0,0,0,-0.6387,-0.6391,-0.6429,-0.6415,-0.6415,-0.641,-0.6412,-0.6436,-0.6436,-0.6419,-0.6418,-0.642,-0.6439,-0.6446,-0.6448,-0.6486,-0.6453,-0.6455,-0.6456,-0.6457,-0.6553,-0.6554,0,0,0,0,0,0,-0.6386,-0.6389,-0.6428,-0.643,-0.6398,-0.6412,-0.6414,-0.6424,-0.6435,-0.6436,-0.6421,-0.6419,-0.6443,-0.6446,-0.6449,-0.6493,-0.6455,-0.6457,-0.6458,-0.6552,-0.6553,-0.6555,0,0,0,0,0,0,-0.6385,-0.6389,-0.6428,-0.6409,-0.6414,-0.6414,-0.6426,-0.6425,-0.6433,-0.6437,-0.6437,-0.6428,-0.6442,-0.6446,-0.6475,-0.6494,-0.6458,-0.646,-0.655,-0.6552,-0.6554,-0.6581,0,0,0,0,0,0,-0.6383,-0.6389,-0.6403,-0.641,-0.6415,-0.6452,-0.6427,-0.6427,-0.6436,-0.6433,-0.6444,-0.6444,-0.6442,-0.6472,-0.6477,-0.6496,-0.6461,-0.6548,-0.6551,-0.6553,-0.6579,-0.6584,-0.6588,0,0,0,0,0,-0.6381,-0.641,-0.6403,-0.6408,-0.6431,-0.6453,-0.6456,-0.6452,-0.6438,-0.6452,-0.6454,-0.6444,-0.649,-0.6475,-0.648,-0.65,-0.6547,-0.655,-0.6553,-0.6577,-0.6583,-0.6588,0,0,0,0,0,0,-0.6407,-0.6411,-0.6404,-0.6435,-0.6444,-0.645,-0.6467,-0.6459,-0.6472,-0.647,-0.6464,-0.6467,-0.6497,-0.6501,-0.6483,-0.6536,-0.6517,-0.6521,-0.6533,-0.6539,-0.6543,-0.6542,-0.6463,0,0,0,0,0,-0.6416,-0.6432,-0.6435,-0.6463,-0.6468,-0.6467,-0.6476,-0.6472,-0.6481,-0.6485,-0.6489,-0.6499,-0.6516,-0.6527,-0.6543,-0.6579,-0.6581,-0.6595,-0.66,-0.6604,-0.6608,-0.6628,-0.6634,-0.6564,-0.6564,-0.6564,0,0,-0.6435,-0.644,-0.6451,-0.6468,-0.6475,-0.6492,-0.647,-0.649,-0.6504,-0.6488,-0.6515,-0.6518,-0.6529,-0.6561,-0.6576,-0.6566,-0.6628,-0.6608,-0.6611,-0.6613,-0.6631,-0.6638,-0.6644,-0.6566,-0.6566,-0.6566,0,0,-0.648,-0.6485,-0.6508,-0.6515,-0.6524,-0.6523,-0.6528,-0.6535,-0.6537,-0.6563,-0.6552,-0.6568,-0.6597,-0.6605,-0.6613,-0.666,-0.6651,-0.6665,-0.6691,-0.671,-0.6715,-0.672,-0.6738,-0.6744,-0.6669,-0.6669,-0.6669,0,-0.6504,-0.6529,-0.6522,-0.6543,-0.6551,-0.6536,-0.656,-0.6567,-0.6581,-0.6588,-0.6576,-0.6612,-0.6618,-0.6652,-0.6663,-0.667,-0.6677,-0.6665,-0.6715,-0.672,-0.6724,-0.6741,-0.6747,-0.6671,-0.667,-0.667,-0.667,0,-0.6558,-0.6576,-0.6594,-0.6607,-0.6617,-0.664,-0.6636,-0.6648,-0.6642,-0.6642,-0.667,-0.6676,-0.6693,-0.6701,-0.6696,-0.6734,-0.6727,-0.6716,-0.6696,-0.6733,-0.6748,-0.6754,-0.6673,-0.6672,-0.6672,-0.6671,0,0,-0.6621,-0.6628,-0.6635,-0.6641,-0.6649,-0.6663,-0.6685,-0.67,-0.671,-0.672,-0.6739,-0.6763,-0.6752,-0.6761,-0.6757,-0.6773,-0.681,-0.6759,-0.6759,-0.6769,-0.6853,-0.6863,-0.687,-0.6804,-0.6805,-0.6806,-0.6852,0,-0.6667,-0.6703,-0.6697,-0.6733,-0.675,-0.6735,-0.6754,-0.6762,-0.6762,-0.6777,-0.6778,-0.6796,-0.6779,-0.6785,-0.68,-0.6802,-0.6827,-0.6799,-0.6822,-0.6823,-0.6821,-0.6878,-0.6888,-0.6932,-0.6858,-0.6859,-0.686,0,-0.6725,-0.6736,-0.6773,-0.6778,-0.6785,-0.6802,-0.6816,-0.6829,-0.6838,-0.6837,-0.6846,-0.6839,-0.6861,-0.684,-0.6871,-0.6852,-0.6861,-0.6864,-0.6865,-0.6868,-0.6845,-0.6883,-0.6946,-0.6952,-0.6869,-0.6868,-0.6868,0,-0.6768,-0.6792,-0.6817,-0.6822,-0.6829,-0.6841,-0.6845,-0.6852,-0.6861,-0.6873,-0.6879,-0.6893,-0.6902,-0.6913,-0.691,-0.6895,-0.6942,-0.6921,-0.6943,-0.6943,-0.6955,-0.6955,-0.7021,-0.6959,-0.6959,-0.6959,-0.6959,0,-0.682,-0.6844,-0.6837,-0.6853,-0.6879,-0.6871,-0.6898,-0.6899,-0.6905,-0.6922,-0.691,-0.6926,-0.692,-0.6936,-0.6934,-0.696,-0.6964,-0.6965,-0.6964,-0.6966,-0.6966,-0.6973,-0.697,-0.6961,-0.696,-0.696,-0.696,0,-0.6874,-0.6869,-0.6896,-0.69,-0.6901,-0.692,-0.6924,-0.6939,-0.6938,-0.6959,-0.6963,-0.6962,-0.698,-0.6977,-0.6998,-0.6996,-0.7029,-0.7024,-0.7026,-0.7025,-0.7048,-0.7046,-0.7122,-0.7131,-0.7063,-0.7064,-0.7064,0,-0.6908,-0.6925,-0.693,-0.694,-0.6944,-0.6959,-0.6968,-0.6961,-0.6972,-0.6982,-0.6996,-0.7012,-0.7025,-0.7054,-0.7056,-0.7071,-0.7067,-0.7092,-0.707,-0.7071,-0.7069,-0.7068,-0.707,-0.7097,-0.7098,-0.7099,-0.7099,0,-0.6969,-0.6966,-0.6979,-0.6991,-0.7002,-0.7011,-0.702,-0.7029,-0.7022,-0.7034,-0.7052,-0.7062,-0.7081,-0.7098,-0.7112,-0.7116,-0.7108,-0.7106,-0.7112,-0.7116,-0.7116,-0.7117,-0.7039,-0.7105,-0.7104,-0.7104,-0.7104,-0.7103,-0.7014,-0.7029,-0.7035,-0.705,-0.7055,-0.7063,-0.7077,-0.7077,-0.7091,-0.7106,-0.7101,-0.7121,-0.7128,-0.7146,-0.7152,-0.7168,-0.7159,-0.7167,-0.717,-0.7172,-0.7175,-0.7112,-0.717,-0.717,-0.717,-0.717,-0.717,0,-0.7076,-0.7078,-0.7091,-0.7103,-0.7115,-0.7103,-0.7112,-0.7123,-0.714,-0.7147,-0.716,-0.718,-0.7195,-0.7198,-0.7213,-0.7225,-0.7221,-0.723,-0.7229,-0.723,-0.7182,-0.7176,-0.7232,-0.7232,-0.7232,-0.7232,-0.7232,-0.7232,-0.7109,-0.7134,-0.7131,-0.7158,-0.7161,-0.7179,-0.7185,-0.7193,-0.7198,-0.7221,-0.7233,-0.7234,-0.7239,-0.7255,-0.7269,-0.7269,-0.7276,-0.7286,-0.7284,-0.724,-0.7234,-0.7228,-0.7222,-0.7287,-0.7287,-0.7331,-0.7332,-0.7332]},{"header":{"parameterUnit":"m.s-1","parameterCategory":1,"la1":30.2991,"la2":30.254,"lo1":-89.0895,"lo2":-89.0444,"dy":0.0017,"dx":0.0017,"nx":28,"ny":28,"refTime":"2026-01-04T03:00:00:Z","depth":0,"parameterNumber":3,"parameterNumberName":"V-component_of_WINDS"},"data":[0,0,0,0,0,0,0,0,0,0,0,0,0,0,0,0,0,0,0,0,0,0,0,0,0,0,0,0,0,0,0,0,0,0,0,0,0,0,0,0,0,0,0,0,0,0,0,0,0,0,0,0,0,0,0,0,0,0,-5.4148,-5.415,0,-5.4292,-5.4294,-5.4295,-5.4282,-5.4279,-5.4277,-5.4275,-5.442,-5.4426,-5.4431,0,0,0,0,0,0,0,0,0,0,0,0,0,-5.386,-5.3865,-5.4148,-5.415,-5.4152,-5.4292,-5.4294,-5.4296,-5.4282,-5.4279,-5.4276,-5.4274,-5.4418,-5.4425,-5.4432,0,0,0,0,0,0,0,0,0,0,0,0,0,-5.3992,-5.3867,-5.4148,-5.4162,-5.4164,-5.4292,-5.4294,-5.4296,-5.4282,-5.4279,-5.4276,-5.4273,-5.4416,-5.4424,-5.4433,-5.4555,0,0,-5.446,-5.4464,0,0,0,0,0,0,0,0,-5.3985,-5.4003,-5.4158,-5.4161,-5.4164,-5.4266,-5.4245,-5.4383,-5.4283,-5.4238,-5.4275,-5.4271,-5.4371,-5.4383,-5.4418,-5.4561,-5.4568,-5.4461,-5.4466,-5.447,-5.4473,0,0,0,0,0,0,0,-5.3976,-5.3997,-5.4205,-5.416,-5.4164,-5.416,-5.4175,-5.4271,-5.4321,-5.4241,-5.4241,-5.4258,-5.4372,-5.4409,-5.4421,-5.457,-5.4461,-5.4469,-5.4474,-5.4478,-5.4824,-5.4828,0,0,0,0,0,0,-5.3963,-5.3989,-5.42,-5.4209,-5.4064,-5.4168,-5.4185,-5.4236,-5.432,-5.433,-5.4261,-5.4257,-5.4395,-5.4411,-5.4426,-5.4577,-5.447,-5.4478,-5.4484,-5.482,-5.4825,-5.4829,0,0,0,0,0,0,-5.3957,-5.3982,-5.4194,-5.4099,-5.4126,-5.4177,-5.4234,-5.4241,-5.4278,-5.4335,-5.4343,-5.429,-5.4393,-5.4413,-5.4524,-5.4581,-5.4482,-5.449,-5.4816,-5.4822,-5.4827,-5.4877,0,0,0,0,0,0,-5.3949,-5.398,-5.4027,-5.41,-5.4131,-5.429,-5.4238,-5.4246,-5.4294,-5.429,-5.4364,-5.4373,-5.4392,-5.4511,-5.4533,-5.4592,-5.4497,-5.4811,-5.4818,-5.4825,-5.4871,-5.4884,-5.4895,0,0,0,0,0,-5.3939,-5.4034,-5.403,-5.4055,-5.4191,-5.4294,-5.4311,-5.4332,-5.4298,-5.4346,-5.4383,-5.4371,-5.4571,-5.4522,-5.4547,-5.4609,-5.4807,-5.4816,-5.4824,-5.4865,-5.4881,-5.4895,0,0,0,0,0,0,-5.3965,-5.4044,-5.404,-5.4162,-5.4221,-5.4291,-5.4352,-5.4348,-5.4418,-5.4411,-5.4433,-5.445,-5.4562,-5.4596,-5.454,-5.4733,-5.4685,-5.4699,-5.4707,-5.4723,-5.4735,-5.4725,-5.4505,0,0,0,0,0,-5.3985,-5.4063,-5.4127,-5.4228,-5.4259,-5.43,-5.4346,-5.4357,-5.4419,-5.4444,-5.4489,-5.4549,-5.4626,-5.4676,-5.4749,-5.4875,-5.4892,-5.493,-5.4943,-5.4953,-5.4965,-5.5037,-5.5055,-5.4857,-5.4857,-5.4857,0,0,-5.4027,-5.408,-5.4127,-5.4235,-5.4283,-5.4363,-5.4322,-5.4407,-5.4467,-5.4457,-5.4565,-5.46,-5.4668,-5.4788,-5.4843,-5.482,-5.5023,-5.4964,-5.4971,-5.4978,-5.5047,-5.5066,-5.5083,-5.4863,-5.4862,-5.4861,0,0,-5.4145,-5.4192,-5.4283,-5.4333,-5.4406,-5.4433,-5.4455,-5.4526,-5.455,-5.4659,-5.4654,-5.4724,-5.4855,-5.4906,-5.4948,-5.5088,-5.508,-5.5111,-5.5176,-5.5246,-5.5262,-5.5275,-5.5328,-5.5346,-5.5123,-5.5123,-5.5123,0,-5.4188,-5.4309,-5.433,-5.4418,-5.4467,-5.4463,-5.4556,-5.4602,-5.4695,-5.4728,-5.4702,-5.4868,-5.4914,-5.5046,-5.5081,-5.5115,-5.5141,-5.5103,-5.5258,-5.5272,-5.5285,-5.5335,-5.5355,-5.5126,-5.5126,-5.5126,-5.5125,0,-5.436,-5.4444,-5.4508,-5.4601,-5.4656,-5.4746,-5.4781,-5.4835,-5.4841,-5.4872,-5.4984,-5.5039,-5.5125,-5.5157,-5.5163,-5.5291,-5.5275,-5.5253,-5.5205,-5.5307,-5.5355,-5.5374,-5.5131,-5.513,-5.5129,-5.5128,0,0,-5.4498,-5.4603,-5.4626,-5.4669,-5.4751,-5.4816,-5.4906,-5.4992,-5.5038,-5.5102,-5.518,-5.5292,-5.5273,-5.5321,-5.5333,-5.5394,-5.5505,-5.5365,-5.5367,-5.5391,-5.5652,-5.567,-5.5691,-5.5499,-5.5503,-5.5506,-5.5647,0,-5.4626,-5.4787,-5.481,-5.4952,-5.5032,-5.503,-5.5108,-5.5167,-5.5198,-5.5269,-5.5303,-5.5383,-5.5351,-5.5381,-5.544,-5.5479,-5.5558,-5.5468,-5.5572,-5.5576,-5.5558,-5.5716,-5.5734,-5.5865,-5.5665,-5.5668,-5.5671,0,-5.4797,-5.4869,-5.502,-5.5093,-5.5127,-5.5198,-5.5279,-5.5347,-5.5414,-5.5432,-5.5488,-5.5493,-5.5587,-5.5534,-5.5665,-5.5604,-5.5647,-5.5673,-5.5678,-5.569,-5.5631,-5.5734,-5.5906,-5.5927,-5.57,-5.5697,-5.5695,0,-5.4886,-5.502,-5.5129,-5.5165,-5.5252,-5.5303,-5.5341,-5.5405,-5.5456,-5.5526,-5.556,-5.564,-5.5685,-5.5747,-5.5774,-5.5732,-5.5904,-5.5852,-5.5922,-5.5922,-5.596,-5.5957,-5.6144,-5.5984,-5.5984,-5.5984,-5.5983,0,-5.5028,-5.5121,-5.517,-5.5237,-5.5342,-5.5367,-5.547,-5.5506,-5.5563,-5.5638,-5.5639,-5.5709,-5.574,-5.5814,-5.5835,-5.5942,-5.5961,-5.5979,-5.5984,-5.598,-5.5978,-5.6011,-5.6003,-5.5989,-5.5988,-5.5987,-5.5986,0,-5.5146,-5.5182,-5.5301,-5.5375,-5.5396,-5.547,-5.5533,-5.5598,-5.5629,-5.5723,-5.5746,-5.5795,-5.5882,-5.5915,-5.6021,-5.6036,-5.616,-5.6156,-5.6138,-5.614,-5.6209,-5.6203,-5.6425,-5.6456,-5.6274,-5.6275,-5.6277,0,-5.5235,-5.5307,-5.539,-5.5441,-5.5481,-5.5562,-5.5615,-5.5643,-5.5698,-5.5781,-5.5836,-5.5924,-5.5996,-5.6137,-5.6181,-5.6263,-5.6263,-5.6335,-5.6275,-5.627,-5.6267,-5.6263,-5.6272,-5.6346,-5.6348,-5.6349,-5.6351,0,-5.5391,-5.5406,-5.5482,-5.5567,-5.563,-5.5697,-5.5761,-5.5803,-5.584,-5.5902,-5.5993,-5.6049,-5.6159,-5.6247,-5.6331,-5.637,-5.6368,-5.6369,-5.639,-5.6388,-5.6376,-5.6386,-5.6171,-5.6364,-5.6363,-5.6362,-5.6361,-5.6361,-5.5499,-5.5564,-5.5633,-5.5719,-5.5771,-5.5833,-5.5898,-5.5938,-5.6015,-5.6108,-5.6119,-5.6218,-5.6284,-5.6398,-5.6441,-5.6519,-5.6499,-5.6529,-5.6537,-5.6545,-5.6551,-5.6362,-5.6534,-5.6533,-5.6533,-5.6533,-5.6532,0,-5.5657,-5.5702,-5.5781,-5.5873,-5.5941,-5.5933,-5.6005,-5.6062,-5.6149,-5.6212,-5.6284,-5.639,-5.6475,-5.6527,-5.6613,-5.6666,-5.6667,-5.6687,-5.6685,-5.6695,-5.6562,-5.6536,-5.6685,-5.6685,-5.6685,-5.6685,-5.6685,-5.6685,-5.5747,-5.5858,-5.5882,-5.6019,-5.6063,-5.6161,-5.6203,-5.626,-5.631,-5.6429,-5.6501,-5.6535,-5.6594,-5.6685,-5.6763,-5.6776,-5.6809,-5.6832,-5.6844,-5.6719,-5.6704,-5.6689,-5.6665,-5.6838,-5.6839,-5.697,-5.6972,-5.6973]}]]